Zurück zum Katalog

STARLINK-36913

AktivKommunikationSSO
NORAD 68031·PAYLOAD·🇺🇸 United States

Gestartet Mar 1, 2026 von Vandenberg Space Force Base

Loading…

Nächste Überflüge (nächste 24 Stunden)

TLE

AktuellSource: CelesTrak SupGP

Epoche: Sep 15, 2026, 04:21 UTC

1 68031C 26040S   26258.18173611  .00085228  00000+0  26461-2 0  2584
2 68031  97.2852 205.6020 0001917 100.3706 252.6319 15.33390578    16

Verfolge STARLINK-36913 in Echtzeit mit AllMySat

Download on the App Store